Abha, Saudi Arabia

3:59 AM +03 on September 21, 2019 (GMT +0300)
Abha

Weather History for OEAB - May, 2019

Change the Weather History Date:

Friday, May 24, 2019

  Actual Average Record
Temperature  
Mean Temperature 67 °F -  
Max Temperature 77 °F 83 °F 87 °F (2008)
Min Temperature 57 °F 60 °F 57 °F (2019)
Cooling Degree Days 2    
Growing Degree Days 17 (Base 50)    
Moisture  
Dew Point 53 °F    
Average Humidity 69    
Maximum Humidity 94    
Minimum Humidity 41    
Precipitation  
Precipitation 0.00 in - - ()
Sea Level Pressure  
Sea Level Pressure 30.30 in    
Wind  
Wind Speed 5 mph ()    
Max Wind Speed 12 mph    
Max Gust Speed -    
Visibility 6.1 miles    
Events Rain , Thunderstorm    
Averages and records for this station are not official NWS values.
T = Trace of Precipitation, MM = Missing Value Source: Averaged Metar Reports

Daily Weather History Graph

Daily Weather History Graph

Search for Another Location

Airport or City:

Astronomy

May. 24, 2019 Rise Set
Actual Time 5:33 AM +03 6:38 PM +03
Civil Twilight 5:10 AM +03 7:02 PM +03
Nautical Twilight 4:42 AM +03 7:30 PM +03
Astronomical Twilight 4:13 AM +03 7:59 PM +03
Moon 11:32 PM +03 (5/24) 10:12 AM +03 (5/24)
Length of Visible Light 13h 52m
Length of Day
13h 04m
Waning Gibbous, 71% of the Moon is Illuminated
May 24
Waning Gibbous
May 26
Last Quarter
Jun 3
New
Jun 10
First Quarter
Jun 17
Full

Hourly Weather History & Observations

Time (+03) Temp. Dew Point Humidity Pressure Visibility Wind Dir Wind Speed Gust Speed Precip Events Conditions
12:00 AM 59.0 °F 53.6 °F 82% 30.33 in - North 4.6 mph - N/A   Clear
2:00 AM 57.2 °F 55.4 °F 94% 30.30 in - Calm Calm - N/A   Clear
3:00 AM 58 °F 55 °F 88%  in 6 mi NNW 5.8 mph - -   Partly Cloudy
3:00 AM 57.2 °F 55.4 °F 94% 30.30 in - NNW 5.8 mph - N/A   Clear
4:00 AM 57.2 °F 53.6 °F 88% 30.27 in - WNW 3.5 mph - N/A   Clear
5:00 AM 59.0 °F 53.6 °F 82% 30.30 in - WSW 4.6 mph - N/A   Clear
7:00 AM 60.8 °F 53.6 °F 77% 30.30 in 6.2 mi Calm Calm - N/A   Mostly Cloudy
8:00 AM 64.4 °F 51.8 °F 64% 30.30 in 6.2 mi SSW 10.4 mph - N/A   Mostly Cloudy
9:00 AM 68.0 °F 50.0 °F 52% 30.33 in 6.2 mi South 9.2 mph - N/A   Mostly Cloudy
10:00 AM 69.8 °F 50.0 °F 49% 30.33 in 6.2 mi South 6.9 mph - N/A   Partly Cloudy
12:00 PM 73.4 °F 48.2 °F 41% 30.30 in 6.2 mi SSW 8.1 mph - N/A   Partly Cloudy
1:00 PM 73.4 °F 48.2 °F 41% 30.30 in 6.2 mi SSW 6.9 mph - N/A   Partly Cloudy
2:00 PM 77.0 °F 51.8 °F 41% 30.27 in 6.2 mi SSW 11.5 mph - N/A   Partly Cloudy
3:00 PM 75.2 °F 50.0 °F 41% 30.27 in 6.2 mi SSW 11.5 mph - N/A   Partly Cloudy
4:00 PM 73.4 °F 50.0 °F 44% 30.27 in 6.2 mi North 11.5 mph - N/A   Partly Cloudy
6:00 PM 62.6 °F 57.2 °F 82% 30.30 in 5.6 mi NNE 4.6 mph - N/A Rain , Thunderstorm Thunderstorms and Rain
8:00 PM 62.6 °F 57.2 °F 82% 30.30 in 6.2 mi South 4.6 mph - N/A   Partly Cloudy
9:00 PM 62.6 °F 57.2 °F 82% 30.33 in 6.2 mi SE 4.6 mph - N/A   Partly Cloudy
10:00 PM 62.6 °F 55.4 °F 77% 30.33 in 6.2 mi East 4.6 mph - N/A   Partly Cloudy
11:00 PM 62.6 °F 55.4 °F 77% 30.33 in 6.2 mi SSE 4.6 mph - N/A   Partly Cloudy